This is the latest recevied weather packets stored in our database for station/object KC9MWQ-13. If no packets are shown the sender has not sent any weather packets the latest 10 day(s).
| Time | Temp. | Humidity | Pressure | Rain* | Wind** | Luminosity | Snow |
|---|---|---|---|---|---|---|---|
| 1778004811 | 10° C | 96% | 1009.7 hPa | 1.78 mm | - | 129 W/m² | - |
| 1778004507 | 10° C | 96% | 1010 hPa | 3.05 mm | - | 121 W/m² | - |
| 1778004204 | 10° C | 96% | 1009.8 hPa | 3.05 mm | - | 129 W/m² | - |
| 1778003901 | 10° C | 95% | 1010 hPa | 3.05 mm | - | 85 W/m² | - |
| 1778003597 | 10° C | 94% | 1009.9 hPa | 1.27 mm | - | 101 W/m² | - |
| 1778003294 | 10.56° C | 94% | 1010.1 hPa | 1.78 mm | - | 99 W/m² | - |
| 1778002991 | 10° C | 93% | 1009.9 hPa | 3.05 mm | - | 93 W/m² | - |
| 1778002687 | 10° C | 93% | 1010.1 hPa | 1.27 mm | - | 94 W/m² | - |
| 1778002384 | 10° C | 93% | 1009.7 hPa | 1.78 mm | - | 87 W/m² | - |
| 1778002081 | 10.56° C | 94% | 1009.7 hPa | 3.05 mm | - | 78 W/m² | - |
| 1778001778 | 10.56° C | 92% | 1009.6 hPa | 1.27 mm | - | 80 W/m² | - |
| 1778001473 | 10.56° C | 92% | 1009.7 hPa | 1.78 mm | - | 101 W/m² | - |
| 1778001170 | 10.56° C | 91% | 1009.8 hPa | 4.83 mm | - | 98 W/m² | - |
| 1778000866 | 10.56° C | 91% | 1009.7 hPa | 3.56 mm | - | 92 W/m² | - |
| 1778000564 | 10.56° C | 90% | 1009.6 hPa | 3.05 mm | - | 95 W/m² | - |
| 1777999955 | 11.11° C | 87% | 1009.7 hPa | 3.05 mm | - | 105 W/m² | - |
| 1777999650 | 11.11° C | 85% | 1009.5 hPa | 1.78 mm | - | 109 W/m² | - |
| 1777999348 | 11.11° C | 82% | 1009.9 hPa | 1.78 mm | - | 96 W/m² | - |
| 1777999046 | 11.11° C | 85% | 1009.7 hPa | 0 mm | - | 122 W/m² | - |
| 1777998744 | 11.11° C | 85% | 1009.6 hPa | 1.27 mm | - | 145 W/m² | - |
| 1777998441 | 11.11° C | 85% | 1009.6 hPa | 1.27 mm | - | 132 W/m² | - |
| 1777998138 | 11.11° C | 85% | 1009.5 hPa | 0 mm | - | 126 W/m² | - |
| 1777997835 | 11.67° C | 84% | 1009.4 hPa | 1.78 mm | - | 139 W/m² | - |
| 1777997533 | 11.67° C | 84% | 1009.3 hPa | 1.78 mm | - | 145 W/m² | - |
| 1777997230 | 11.67° C | 84% | 1009.5 hPa | 0 mm | - | 161 W/m² | - |
* Rain latest hour (hover to see other rain measurements)
** Current wind speed in m/s (hover to see current wind gust speed)